AAL1203 KCLT-KBUF

Flight info

Callsign AAL1203
Flight time 1h 14m
Altitude 35000
Route KRITR6 FILDS ILLSA Q69 RICCS EWC DKK
Aircraft A319/M-SDE3FGHIRWY/LB1

Departure

Time 2026-05-06 22:46
Airport Charlotte Douglas International Airport (KCLT)

Arrival

Time 2026-05-07 00:00
Airport Buffalo Niagara International Airport (KBUF)
Time Latitude Longitude Altitude Speed Heading
2026-05-06 22:21 35.22072 -80.94682 733 ft 0 kts 176°
2026-05-06 22:37 35.22075 -80.94682 732 ft 3 kts 175°
2026-05-06 22:37 35.22094 -80.94692 732 ft 4 kts 111°
2026-05-06 22:38 35.22099 -80.94717 732 ft 4 kts 107°
2026-05-06 22:38 35.22110 -80.94744 732 ft 4 kts 147°
2026-05-06 22:38 35.22129 -80.94749 732 ft 4 kts 223°
2026-05-06 22:38 35.22136 -80.94724 731 ft 3 kts 266°
2026-05-06 22:39 35.22136 -80.94720 731 ft 0 kts 266°
2026-05-06 22:41 35.22135 -80.94737 732 ft 4 kts 266°
2026-05-06 22:42 35.22132 -80.94789 732 ft 7 kts 266°
2026-05-06 22:42 35.22128 -80.94859 733 ft 9 kts 266°
2026-05-06 22:42 35.22123 -80.94942 733 ft 11 kts 266°
2026-05-06 22:42 35.22120 -80.95036 733 ft 11 kts 281°
2026-05-06 22:43 35.22187 -80.95072 734 ft 12 kts 356°
2026-05-06 22:43 35.22276 -80.95080 733 ft 14 kts 356°
2026-05-06 22:43 35.22378 -80.95088 734 ft 16 kts 356°
2026-05-06 22:43 35.22489 -80.95097 733 ft 15 kts 356°
2026-05-06 22:44 35.22594 -80.95105 733 ft 16 kts 356°
2026-05-06 22:44 35.22701 -80.95114 732 ft 13 kts 355°
2026-05-06 22:44 35.22735 -80.95199 735 ft 12 kts 263°
2026-05-06 22:44 35.22725 -80.95285 739 ft 8 kts 258°
2026-05-06 22:45 35.22684 -80.95315 741 ft 8 kts 172°
2026-05-06 22:45 35.22568 -80.95301 740 ft 43 kts 175°
2026-05-06 22:45 35.22009 -80.95257 741 ft 114 kts 176°
2026-05-06 22:45 35.21024 -80.95180 813 ft 160 kts 178°
2026-05-06 22:46 35.19909 -80.95060 1442 ft 163 kts 176°
2026-05-06 22:46 35.18767 -80.94884 2129 ft 167 kts 175°
2026-05-06 22:46 35.17600 -80.94676 2814 ft 172 kts 175°
2026-05-06 22:46 35.16362 -80.94738 3167 ft 189 kts 204°
2026-05-06 22:47 35.15270 -80.95763 3564 ft 212 kts 228°
2026-05-06 22:47 35.14278 -80.97227 4083 ft 236 kts 231°
2026-05-06 22:47 35.13295 -80.98917 4817 ft 251 kts 244°
2026-05-06 22:47 35.12968 -81.01028 5811 ft 260 kts 272°
2026-05-06 22:48 35.13306 -81.03214 6869 ft 263 kts 280°
2026-05-06 22:48 35.13750 -81.05396 7873 ft 266 kts 281°
2026-05-06 22:48 35.14483 -81.07497 8784 ft 277 kts 301°
2026-05-06 22:48 35.15938 -81.09093 9676 ft 290 kts 327°
2026-05-06 22:49 35.17919 -81.09725 10557 ft 305 kts 355°
2026-05-06 22:49 35.20107 -81.09312 11033 ft 333 kts
2026-05-06 22:49 35.22436 -81.08574 11338 ft 358 kts
2026-05-06 22:49 35.24880 -81.07704 11883 ft 371 kts 10°
2026-05-06 22:50 35.27369 -81.06780 12653 ft 376 kts 10°
2026-05-06 22:50 35.29885 -81.05854 13442 ft 379 kts
2026-05-06 22:50 35.32419 -81.04935 14217 ft 380 kts
2026-05-06 22:50 35.34979 -81.04026 14919 ft 386 kts
2026-05-06 22:51 35.37568 -81.03129 15697 ft 388 kts
2026-05-06 22:51 35.40175 -81.02238 16448 ft 391 kts
2026-05-06 22:51 35.42806 -81.01337 17176 ft 394 kts
2026-05-06 22:51 35.45455 -81.00424 17908 ft 397 kts
2026-05-06 22:52 35.48132 -80.99497 18635 ft 401 kts
2026-05-06 22:52 35.50829 -80.98563 19309 ft 405 kts
2026-05-06 22:52 35.53548 -80.97621 19930 ft 409 kts
2026-05-06 22:52 35.56310 -80.96665 20506 ft 414 kts
2026-05-06 22:53 35.59094 -80.95701 21087 ft 418 kts
2026-05-06 22:53 35.61912 -80.94744 21617 ft 422 kts
2026-05-06 22:53 35.64754 -80.93800 22137 ft 425 kts
2026-05-06 22:53 35.67595 -80.92870 22614 ft 430 kts
2026-05-06 22:54 35.70554 -80.92111 23094 ft 428 kts
2026-05-06 22:54 35.73505 -80.91537 23577 ft 432 kts
2026-05-06 22:54 35.76490 -80.90956 24043 ft 436 kts
2026-05-06 22:54 35.79459 -80.90372 24474 ft 438 kts
2026-05-06 22:55 35.82482 -80.89767 24884 ft 442 kts
2026-05-06 22:55 35.85523 -80.89160 25325 ft 445 kts
2026-05-06 22:55 35.88593 -80.88547 25774 ft 448 kts
2026-05-06 22:55 35.91683 -80.87931 26218 ft 451 kts
2026-05-06 22:56 35.94790 -80.87313 26648 ft 454 kts
2026-05-06 22:56 35.97920 -80.86692 27066 ft 457 kts
2026-05-06 22:56 36.01070 -80.86065 27443 ft 460 kts
2026-05-06 22:56 36.04235 -80.85430 27822 ft 464 kts
2026-05-06 22:57 36.07433 -80.84791 28137 ft 468 kts
2026-05-06 22:57 36.10656 -80.84149 28484 ft 471 kts
2026-05-06 22:57 36.13899 -80.83499 28831 ft 473 kts
2026-05-06 22:57 36.17158 -80.82845 29178 ft 477 kts
2026-05-06 22:58 36.20441 -80.82188 29512 ft 479 kts
2026-05-06 22:58 36.23740 -80.81529 29858 ft 481 kts
2026-05-06 22:58 36.25927 -80.81090 30172 ft 481 kts
2026-05-06 22:58 36.29222 -80.80424 30668 ft 479 kts
2026-05-06 22:59 36.32503 -80.79757 31187 ft 477 kts 360°
2026-05-06 22:59 36.35764 -80.79092 31730 ft 473 kts 359°
2026-05-06 22:59 36.39005 -80.78433 32248 ft 471 kts 359°
2026-05-06 22:59 36.42230 -80.77780 32779 ft 468 kts 358°
2026-05-06 23:00 36.45435 -80.77134 33301 ft 465 kts 357°
2026-05-06 23:00 36.48618 -80.76494 33827 ft 461 kts 357°
2026-05-06 23:00 36.51775 -80.75857 34354 ft 458 kts 356°
2026-05-06 23:00 36.54910 -80.75225 34813 ft 455 kts 356°
2026-05-06 23:01 36.58032 -80.74521 34970 ft 463 kts
2026-05-06 23:01 36.61152 -80.73276 34992 ft 478 kts
2026-05-06 23:01 36.64255 -80.71786 35000 ft 478 kts
2026-05-06 23:02 36.70461 -80.68767 34984 ft 479 kts
2026-05-06 23:02 36.76669 -80.65725 34988 ft 479 kts
2026-05-06 23:03 36.82876 -80.62694 34985 ft 479 kts
2026-05-06 23:03 36.89089 -80.59668 34984 ft 480 kts
2026-05-06 23:04 36.95314 -80.56623 34980 ft 481 kts
2026-05-06 23:04 37.01541 -80.53573 34978 ft 480 kts
2026-05-06 23:05 37.07761 -80.50511 34975 ft 480 kts
2026-05-06 23:05 37.13982 -80.47448 34974 ft 480 kts
2026-05-06 23:06 37.20200 -80.44388 34972 ft 481 kts
2026-05-06 23:06 37.26430 -80.41311 34977 ft 481 kts
2026-05-06 23:07 37.32624 -80.38244 34979 ft 482 kts
2026-05-06 23:07 37.38863 -80.35142 34977 ft 482 kts
2026-05-06 23:08 37.45102 -80.32030 34975 ft 482 kts
2026-05-06 23:08 37.51346 -80.28922 34965 ft 483 kts
2026-05-06 23:09 37.57591 -80.25813 34960 ft 483 kts
2026-05-06 23:09 37.63862 -80.22792 34955 ft 476 kts
2026-05-06 23:09 37.67029 -80.21868 34956 ft 459 kts 355°
2026-05-06 23:10 37.70178 -80.21380 34961 ft 456 kts 353°
2026-05-06 23:10 37.76473 -80.20448 34954 ft 455 kts 353°
2026-05-06 23:11 37.82771 -80.19516 34958 ft 456 kts 353°
2026-05-06 23:11 37.89073 -80.18579 34961 ft 456 kts 353°
2026-05-06 23:12 37.95374 -80.17631 34961 ft 456 kts 353°
2026-05-06 23:12 38.01664 -80.16681 34964 ft 456 kts 353°
2026-05-06 23:13 38.07964 -80.15743 34965 ft 456 kts 353°
2026-05-06 23:13 38.14264 -80.14794 34970 ft 456 kts 353°
2026-05-06 23:14 38.20554 -80.13845 34968 ft 455 kts 353°
2026-05-06 23:14 38.26841 -80.12898 34965 ft 455 kts 353°
2026-05-06 23:15 38.33132 -80.11945 34961 ft 456 kts 353°
2026-05-06 23:15 38.39422 -80.11100 34963 ft 451 kts 350°
2026-05-06 23:16 38.45646 -80.10751 34962 ft 446 kts 347°
2026-05-06 23:16 38.51855 -80.10572 34963 ft 447 kts 347°
2026-05-06 23:17 38.58090 -80.10298 34963 ft 449 kts 348°
2026-05-06 23:17 38.64343 -80.09941 34965 ft 450 kts 348°
2026-05-06 23:18 38.70564 -80.09576 34964 ft 450 kts 348°
2026-05-06 23:18 38.76828 -80.09222 34965 ft 450 kts 348°
2026-05-06 23:19 38.83092 -80.08877 34969 ft 451 kts 348°
2026-05-06 23:19 38.89373 -80.08537 34966 ft 452 kts 348°
2026-05-06 23:20 38.95577 -80.08611 34967 ft 441 kts 342°
2026-05-06 23:20 39.01716 -80.09009 34970 ft 442 kts 342°
2026-05-06 23:21 39.07867 -80.09404 34973 ft 443 kts 342°
2026-05-06 23:21 39.14020 -80.09814 34975 ft 443 kts 342°
2026-05-06 23:22 39.20176 -80.10224 34966 ft 443 kts 341°
2026-05-06 23:22 39.26339 -80.10627 34964 ft 444 kts 341°
2026-05-06 23:23 39.32511 -80.11031 34967 ft 444 kts 341°
2026-05-06 23:23 39.38687 -80.11448 34963 ft 445 kts 341°
2026-05-06 23:24 39.44871 -80.11855 34964 ft 446 kts 341°
2026-05-06 23:24 39.51067 -80.12265 34967 ft 446 kts 341°
2026-05-06 23:25 39.57264 -80.12675 34972 ft 446 kts 341°
2026-05-06 23:25 39.63464 -80.13084 34975 ft 447 kts 341°
2026-05-06 23:26 39.69655 -80.13495 34978 ft 444 kts 341°
2026-05-06 23:26 39.75834 -80.13931 34979 ft 445 kts 341°
2026-05-06 23:27 39.82031 -80.14343 34981 ft 446 kts 341°
2026-05-06 23:27 39.88236 -80.14744 34986 ft 446 kts 341°
2026-05-06 23:28 39.94437 -80.15149 34985 ft 446 kts 341°
2026-05-06 23:28 40.00632 -80.15564 34984 ft 445 kts 341°
2026-05-06 23:29 40.06823 -80.15986 34987 ft 446 kts 341°
2026-05-06 23:29 40.13008 -80.16405 34987 ft 445 kts 341°
2026-05-06 23:30 40.19199 -80.16825 34988 ft 445 kts 341°
2026-05-06 23:30 40.25385 -80.17249 34983 ft 445 kts 341°
2026-05-06 23:31 40.31573 -80.17670 34979 ft 445 kts 341°
2026-05-06 23:31 40.37764 -80.18094 34973 ft 446 kts 341°
2026-05-06 23:32 40.43965 -80.18517 34964 ft 447 kts 341°
2026-05-06 23:32 40.50176 -80.18941 34963 ft 447 kts 341°
2026-05-06 23:33 40.56392 -80.19368 34965 ft 447 kts 341°
2026-05-06 23:33 40.62710 -80.19211 34962 ft 482 kts 358°
2026-05-06 23:33 40.65960 -80.17642 34964 ft 509 kts 11°
2026-05-06 23:34 40.69166 -80.15627 34960 ft 512 kts 12°
2026-05-06 23:34 40.75560 -80.11418 34957 ft 515 kts 13°
2026-05-06 23:35 40.81965 -80.07151 34962 ft 516 kts 13°
2026-05-06 23:35 40.88391 -80.02939 34964 ft 515 kts 13°
2026-05-06 23:36 40.94826 -79.98756 34966 ft 515 kts 13°
2026-05-06 23:36 41.01258 -79.94564 34978 ft 515 kts 13°
2026-05-06 23:37 41.07684 -79.90353 34975 ft 515 kts 13°
2026-05-06 23:37 41.14104 -79.86097 34974 ft 516 kts 14°
2026-05-06 23:38 41.20517 -79.81792 34972 ft 517 kts 14°
2026-05-06 23:38 41.26943 -79.77490 34976 ft 517 kts 13°
2026-05-06 23:39 41.33375 -79.73200 34975 ft 517 kts 13°
2026-05-06 23:39 41.39811 -79.68903 34978 ft 518 kts 13°
2026-05-06 23:40 41.46204 -79.64609 34891 ft 519 kts 14°
2026-05-06 23:40 41.49428 -79.62434 34454 ft 519 kts 14°
2026-05-06 23:40 41.52649 -79.60258 34023 ft 519 kts 14°
2026-05-06 23:40 41.55910 -79.58056 33604 ft 519 kts 13°
2026-05-06 23:41 41.59136 -79.55878 33188 ft 520 kts 13°
2026-05-06 23:41 41.62370 -79.53695 32756 ft 522 kts 14°
2026-05-06 23:41 41.65619 -79.51501 32330 ft 524 kts 14°
2026-05-06 23:41 41.68860 -79.49298 31902 ft 517 kts 14°
2026-05-06 23:42 41.71979 -79.47161 31459 ft 506 kts 14°
2026-05-06 23:42 41.75098 -79.45029 30927 ft 500 kts 14°
2026-05-06 23:42 41.78183 -79.42929 30404 ft 496 kts 14°
2026-05-06 23:42 41.81262 -79.40848 29872 ft 493 kts 14°
2026-05-06 23:43 41.84327 -79.38785 29359 ft 491 kts 14°
2026-05-06 23:43 41.86376 -79.37397 29008 ft 488 kts 15°
2026-05-06 23:43 41.89394 -79.35342 28479 ft 484 kts 15°
2026-05-06 23:43 41.92387 -79.33292 27953 ft 481 kts 15°
2026-05-06 23:44 41.95354 -79.31261 27386 ft 477 kts 16°
2026-05-06 23:44 41.98302 -79.29237 26787 ft 474 kts 17°
2026-05-06 23:44 42.01274 -79.27528 26190 ft 452 kts
2026-05-06 23:44 42.04270 -79.26924 25587 ft 426 kts 352°
2026-05-06 23:45 42.07193 -79.26765 24963 ft 418 kts 350°
2026-05-06 23:45 42.10078 -79.26675 24365 ft 411 kts 350°
2026-05-06 23:45 42.12928 -79.26625 23705 ft 409 kts 350°
2026-05-06 23:45 42.15774 -79.26609 23035 ft 408 kts 350°
2026-05-06 23:46 42.18603 -79.26620 22352 ft 407 kts 350°
2026-05-06 23:46 42.21439 -79.26647 21673 ft 406 kts 350°
2026-05-06 23:46 42.24258 -79.26689 21000 ft 406 kts 350°
2026-05-06 23:46 42.27080 -79.26740 20320 ft 405 kts 350°
2026-05-06 23:47 42.29893 -79.26802 19641 ft 403 kts 350°
2026-05-06 23:47 42.32685 -79.26872 18966 ft 400 kts 350°
2026-05-06 23:47 42.35466 -79.26952 18299 ft 398 kts 350°
2026-05-06 23:47 42.38237 -79.27046 17611 ft 397 kts 350°
2026-05-06 23:48 42.40980 -79.27145 16933 ft 391 kts 350°
2026-05-06 23:48 42.43696 -79.27259 16259 ft 388 kts 350°
2026-05-06 23:48 42.46376 -79.27384 15606 ft 382 kts 350°
2026-05-06 23:48 42.49012 -79.27517 14955 ft 378 kts 351°
2026-05-06 23:49 42.51642 -79.27104 14302 ft 385 kts
2026-05-06 23:49 42.54234 -79.26185 13650 ft 384 kts
2026-05-06 23:49 42.56798 -79.25253 12999 ft 379 kts
2026-05-06 23:49 42.59322 -79.24332 12351 ft 373 kts
2026-05-06 23:50 42.61809 -79.23421 11693 ft 368 kts
2026-05-06 23:50 42.66677 -79.21694 10478 ft 353 kts
2026-05-06 23:50 42.68990 -79.20908 10276 ft 334 kts
2026-05-06 23:51 42.71191 -79.20175 10073 ft 318 kts
2026-05-06 23:51 42.73293 -79.19478 9803 ft 306 kts
2026-05-06 23:51 42.75314 -79.18727 9474 ft 299 kts 18°
2026-05-06 23:51 42.77206 -79.17669 9142 ft 287 kts 11°
2026-05-06 23:52 42.79127 -79.17485 8820 ft 272 kts 352°
2026-05-06 23:52 42.80988 -79.17713 8444 ft 265 kts 350°
2026-05-06 23:52 42.82810 -79.17979 8066 ft 261 kts 350°
2026-05-06 23:52 42.84603 -79.18196 7682 ft 258 kts 358°
2026-05-06 23:53 42.86319 -79.17535 7309 ft 261 kts 28°
2026-05-06 23:53 42.87596 -79.15788 6931 ft 264 kts 58°
2026-05-06 23:53 42.88090 -79.13401 6555 ft 264 kts 89°
2026-05-06 23:53 42.87673 -79.11005 6175 ft 260 kts 120°
2026-05-06 23:54 42.86666 -79.08991 5824 ft 255 kts 129°
2026-05-06 23:54 42.85593 -79.07104 5489 ft 249 kts 129°
2026-05-06 23:54 42.84533 -79.05266 5196 ft 243 kts 130°
2026-05-06 23:54 42.83518 -79.03514 4919 ft 228 kts 130°
2026-05-06 23:55 42.82559 -79.01860 4659 ft 218 kts 129°
2026-05-06 23:55 42.81624 -79.00256 4411 ft 215 kts 130°
2026-05-06 23:55 42.80804 -78.98581 4148 ft 213 kts 112°
2026-05-06 23:55 42.80607 -78.96615 3962 ft 210 kts 82°
2026-05-06 23:56 42.81114 -78.94819 3840 ft 206 kts 55°
2026-05-06 23:56 42.81906 -78.93175 3724 ft 205 kts 54°
2026-05-06 23:56 42.82678 -78.91554 3590 ft 204 kts 55°
2026-05-06 23:56 42.83431 -78.89968 3466 ft 195 kts 54°
2026-05-06 23:57 42.84166 -78.88432 3353 ft 193 kts 55°
2026-05-06 23:57 42.84893 -78.86902 3217 ft 192 kts 55°
2026-05-06 23:57 42.85616 -78.85385 3044 ft 188 kts 55°
2026-05-06 23:57 42.86314 -78.83927 2799 ft 181 kts 55°
2026-05-06 23:58 42.87001 -78.82501 2528 ft 179 kts 55°
2026-05-06 23:58 42.87765 -78.81190 2222 ft 174 kts 43°
2026-05-06 23:58 42.88611 -78.80072 1972 ft 165 kts 42°
2026-05-06 23:58 42.89422 -78.79009 1747 ft 158 kts 43°
2026-05-06 23:59 42.90192 -78.78004 1544 ft 153 kts 42°
2026-05-06 23:59 42.90951 -78.77018 1317 ft 150 kts 43°
2026-05-06 23:59 42.91686 -78.76047 1121 ft 144 kts 43°
2026-05-06 23:59 42.92403 -78.75117 932 ft 141 kts 42°
2026-05-07 00:00 42.93095 -78.74200 758 ft 137 kts 43°
2026-05-07 00:00 42.93733 -78.73364 727 ft 107 kts 43°
2026-05-07 00:00 42.94122 -78.72858 724 ft 37 kts 44°
2026-05-07 00:00 42.94199 -78.72750 729 ft 9 kts 57°
2026-05-07 00:01 42.94200 -78.72660 726 ft 11 kts 116°
2026-05-07 00:01 42.94129 -78.72629 728 ft 13 kts 199°
2026-05-07 00:01 42.94056 -78.72724 724 ft 16 kts 228°
2026-05-07 00:01 42.93983 -78.72829 721 ft 16 kts 225°
2026-05-07 00:02 42.93900 -78.72931 726 ft 16 kts 221°
2026-05-07 00:02 42.93822 -78.73035 726 ft 15 kts 225°
2026-05-07 00:02 42.93750 -78.73137 727 ft 14 kts 226°
2026-05-07 00:02 42.93696 -78.73211 728 ft 11 kts 224°
2026-05-07 00:03 42.93642 -78.73280 727 ft 10 kts 223°
2026-05-07 00:03 42.93584 -78.73347 725 ft 10 kts 206°
2026-05-07 00:03 42.93521 -78.73312 723 ft 7 kts 128°
2026-05-07 00:03 42.93497 -78.73262 722 ft 6 kts 129°
2026-05-07 00:04 42.93492 -78.73254 722 ft 0 kts 130°